Regional Weather Roundup
Issued by NWS Sterling, VA

Home | Current Version | Previous Version | Text Only | Print | Product List | Glossary Off
Versions: 1 2 3 4 5 6 7 8 9 10 11 12 13 14 15 16 17 18 19 20 21 22 23 24 25 26 27 28 29 30 31 32 33 34 35 36 37 38 39 40 41 42 43 44 45 46 47 48 49 50

000
ASUS41 KLWX 301510
RWRLWX

REGIONAL WEATHER ROUNDUP
NATIONAL WEATHER SERVICE BALTIMORE MD/WASHINGTON DC
1000 AM EST FRI JAN 30 2015

Note: "FAIR" indicates few or no clouds below 12,000 feet
with no significant weather and/or obstructions to visibility.
 TC=TEMPERATURE CELSIUS

 * =Non NWS site. Station does not report precipitation (e.g. rain,
    snow, etc.), thunder, or fog.

DCZ001-MDZ009-015-VAZ040>042-051-053>054-301600-
WASHINGTON METRO

CITY           SKY/WX    TMP DP  RH WIND       PRES   REMARKS
WASHINGTON NAT LGT SNOW  41  25  52 N17G25    30.04R
DULLES         PTSUNNY   37  27  67 NW17G29   30.03R WCI  27
ANDREWS AFB    LGT RAIN  38  25  59 NW21G29   30.01R WCI  28
FT BELVOIR     PTSUNNY   40  25  55 NW16G24   30.03R
QUANTICO       PTSUNNY   41  23  48 NW16G28   30.05R
COLLEGE PARK*  MOSUNNY   39  27  60 NW15G24   30.01R
LEESBURG*      LGT SNOW  36  34  93 NW10      30.04R WCI  28
MANASSAS*      PTSUNNY   39  28  65 MISG      30.04R
GAITHERSBURG*  PTSUNNY   36  27  69 NW17G23   30.04R WCI  25

$$

MDZ006>007-011-014-301600-
BALTIMORE METRO

CITY           SKY/WX    TMP DP  RH WIND       PRES   REMARKS
BWI AIRPORT    MOSUNNY   38  23  55 NW17G24   29.99R WCI  28
MD SCIENCE CTR   N/A     39  23  52 MISG      30.00R
MARTIN STATE   MOSUNNY   41  27  56 W22G28    29.99S
ANNAPOLIS      MOSUNNY   40  23  50 NW15G28   30.00R
FORT MEADE*    MOSUNNY   37  27  65 NW9       30.02R

$$

MDZ012-015-019>023-301600-
MARYLAND EASTERN SHORE

CITY           SKY/WX    TMP DP  RH WIND       PRES   REMARKS
OCEAN CITY     CLOUDY    39  26  59 NW17G32   29.96R
SALISBURY      PTSUNNY   43  27  53 NW13G24   29.97R
BAY BRIDGE AP*   N/A     37  25  60 NW15G21   29.99S WCI  28
CAMBRIDGE*     SUNNY     41  27  56 NW12G24   29.98R
EASTON*        MOSUNNY   41  27  56 N14G24    30.02

$$

MDZ017>025-301600-
SOUTHERN MARYLAND

CITY           SKY/WX    TMP DP  RH WIND       PRES   REMARKS
PATUXENT RIVER PTSUNNY   40  22  48 NW18      30.00R
ST INIGOES     MOSUNNY   42  20  41 NW10G26   30.00R
LEONARDTOWN*   PTSUNNY   41  21  45 W10G18    30.01S

$$

MDZ003>005-301600-
NORTH CENTRAL MARYLAND

CITY           SKY/WX    TMP DP  RH WIND       PRES   REMARKS
FREDERICK*     CLOUDY   N/A N/A N/A NW14      30.05R
HAGERSTOWN APT CLOUDY    33  24  69 W16       30.02R WCI  23
WESTMINSTER*   CLOUDY    34  25  69 NW13G18   29.97R WCI  25

$$

MDZ501>502-301600-
WESTERN MARYLAND

CITY           SKY/WX    TMP DP  RH WIND       PRES   REMARKS
OAKLAND*       FOG       19 N/A N/A NW12G22   29.98R VSB 3/4 WCI   7
CUMBERLAND*    MOSUNNY   32  19  59 N20G29    30.13R WCI  20

$$

VAZ025>031-301600-
SHENANDOAH VALLEY

CITY           SKY/WX    TMP DP  RH WIND       PRES   REMARKS
WINCHESTER*    CLOUDY    36  18  48 NW18G29   30.04R WCI  25
FRONT ROYAL*   CLOUDY    34  19  55 NW9G20    30.04R WCI  26
LURAY*         CLOUDY    37  23  56 NW7G16    30.04S
NEW MARKET*    CLOUDY    36  20  53 N7        30.04S
STAUNTON*      PTSUNNY   36  20  52 NW13G21   30.05R WCI  27
WAYNESBORO*    PTSUNNY   34  19  54 W15G21    30.02R WCI  25

$$

WVZ021-048>050-054>055-301600-
EASTERN WEST VIRGINIA PANHANDLE

CITY           SKY/WX    TMP DP  RH WIND       PRES   REMARKS
MARTINSBURG    CLOUDY    36  22  56 W21G30    30.05R WCI  25
PETERSBURG*    CLOUDY    32  18  55 N10       30.09R WCI  24

$$

VAZ036>039-050-301600-
CENTRAL FOOTHILLS

CITY           SKY/WX    TMP DP  RH WIND       PRES   REMARKS
CHARLOTTESVILL CLOUDY    40  22  48 NW12G21   30.02R
CULPEPER*      PTSUNNY   39  27  60 NW8       30.04R
ORANGE*        CLOUDY    41  23  48 W9        30.04R
GORDONSVILLE*  PTSUNNY   40  21  46 NW10G20   30.02S
WARRENTON*     CLOUDY    40  30  66 N16       30.03R

$$

VAZ055>057-301600-
NORTH AND CENTRAL PIEDMONT

CITY           SKY/WX    TMP DP  RH WIND       PRES   REMARKS
FREDERICKSBRG* CLOUDY    42  25  50 NW12G20   30.03R
STAFFORD*      CLOUDY    40  23  49 NW17G23   30.07R

$$

NCZ024-NYZ072-PAZ021-071-VAZ022-071-301600-
OTHER REGIONAL OBSERVATIONS

CITY           SKY/WX    TMP DP  RH WIND       PRES   REMARKS
NEW YORK CITY  CLOUDY    32  26  78 VRB5      29.89S HAZE
PHILADELPHIA   FLURRIES  37  26  64 W17G24    29.94S WCI  27
PITTSBURGH     FLURRIES  21  13  71 NW20G31   30.18R WCI   6
ROANOKE        CLOUDY    37  17  44 W24G35    30.11R WCI  26
RICHMOND       PTSUNNY   42  27  55 N9        30.03R
RALEIGH        MOSUNNY   43  21  41 VRB7G26   30.09R

$$

ANZ530>537-301600-
MARINE OBSERVATIONS

STATION/POSITION TIME  TEMP    WIND        PRES
                       AIR SEA DIR/SP/G
                 (UTC) (F)     (DEG/KT/KT) (MB)
THOMAS PT LIGHT  1500   39 36  320/ 16/ 17 1016.7R
BALT KEY BRIDGE  1500   38     290/ 19/ 21 1015.3R
COVE POINT       1500   38     350/ 22/ 25 1015.5R
LEWISETTA        1500   40 37  330/ 14/ 18 1016.1R
SOLOMONS ISLAND  1500      37                N/A
PINEY POINT      1500          340/ 16/ 18   N/A

$$



USA.gov is the U.S. government's official web portal to all federal, state and local government web resources and services.